Regional Weather Roundup
Issued by NWS

Home | Current Version | Previous Version | Graphics & Text | Print | Product List | Glossary On
Versions: 1 2 3 4 5 6 7 8 9 10 11 12 13 14 15 16 17 18 19 20 21 22 23 24 25 26 27 28 29 30 31 32 33 34 35 36 37 38 39 40 41 42 43 44 45 46 47 48 49 50
000
ASUS45 KABQ 052101
RWRNM
NEW MEXICO REGIONAL WEATHER ROUNDUP
NATIONAL WEATHER SERVICE ALBUQUERQUE NM
300 PM MDT THU MAY 05 2016

NOTE: "FAIR" MEANS FEW OR NO CLOUDS BELOW 12,000 FEET AGL WITH NO
       SIGNIFICANT WEATHER OR OBSTRUCTIONS TO VISION.

      THIS PRODUCT IS RELEASED AS TWO VERSIONS.  ONE VERSION NEAR
      THE TOP OF THE HOUR CONTAINING PRELIMINARY DATA FROM ALBUQUERQUE
      AND OTHER STATIONS.  A FINAL VERSION WITH ADDITIONAL DATA IS
      ISSUED ABOUT 10 MINUTES AFTER THE HOUR.

NMZ501-503-504-510>518-052200-
NORTHWEST PLATEAU/NORTHCENTRAL MOUNTAINS

CITY           SKY/WX    TMP DP  RH WIND       PRES   REMARKS
FARMINGTON     FAIR      81  20  10 SE8G18    30.02F
SANTA FE       FAIR      79  23  12 SW10      30.14F
TAOS           FAIR      72  23  16 CALM      30.20F

$$
NMZ402-403-502-505>509-052200-
WESTCENTRAL MOUNTAINS/SOUTHWEST MOUNTAINS

CITY           SKY/WX    TMP DP  RH WIND       PRES   REMARKS
GALLUP         FAIR      77  26  15 SE12G25   30.07F
GRANTS         FAIR      78  25  14 E20G26    30.14F
SILVER CITY      N/A     82  30  15 S23G29    30.09F

$$
NMZ407-409-411-412-052200-
SOUTHERN DESERTS

CITY           SKY/WX    TMP DP  RH WIND       PRES   REMARKS
LORDSBURG      FAIR      88  32  13 SE15G23   29.97F
DEMING         FAIR      89  32  13 SE14G24   30.00F
ALAMOGORDO     FAIR      86  23  10 S13G20    30.05F
T OR C         FAIR      83  27  13 VRB7G21   30.04F

$$
NMZ519>523-052200-
CENTRAL VALLEYS/CENTRAL HIGHLANDS

CITY           SKY/WX    TMP DP  RH WIND       PRES   REMARKS
ALBUQUERQUE    FAIR      81  23  11 CALM      30.08F
DOUBLE EAGLE   MOSUNNY   81  25  12 SE12G21   30.12F
CLINES CORNERS FAIR      75  20  12 SE12G22   30.19F
BELEN          FAIR      83  22  10 S14G20    30.07F
SOCORRO        NOT AVBL

$$
NMZ524>526-539-540-052200-
SOUTHCENTRAL MOUNTAINS

CITY           SKY/WX    TMP DP  RH WIND       PRES   REMARKS
RUIDOSO        NOT AVBL

$$
NMZ527>531-052200-
NORTHEAST HIGHLANDS/NORTHEAST PLAINS

CITY           SKY/WX    TMP DP  RH WIND       PRES   REMARKS
LAS VEGAS      FAIR      75  24  15 S18G38    30.18F
RATON          FAIR      77  18  11 S7        30.13F
CLAYTON        FAIR      81  26  13 MISG      30.08F

$$
NMZ532>537-052200-
EASTCENTRAL PLAINS

CITY           SKY/WX    TMP DP  RH WIND       PRES   REMARKS
TUCUMCARI      FAIR      87  21   9 S15G21    30.05F
CANNON AFB     NOT AVBL
CLOVIS AIRPORT FAIR      82  27  13 S15       30.10F

$$
NMZ028-029-538-052200-
SOUTHEAST PLAINS

CITY           SKY/WX    TMP DP  RH WIND       PRES   REMARKS
ROSWELL        FAIR      86  20   9 SE15G21   30.05F
ARTESIA        FAIR      88  25  10 SE20G28   30.05F
CARLSBAD       FAIR      87  23   9 S16G23    30.03F
HOBBS          SUNNY     82  21  10 SE8G17    30.10F


$$




USA.gov is the U.S. government's official web portal to all federal, state and local government web resources and services.